Home > Time Zones > World Clock > Weather > France > Caen > Past weeks

Flag for France Weather past 2 weeks in Caen, France

Now
48 °F

Light rain. Fog.


Feels Like: 44 °F
Forecast: 41 / 64 °F
Wind: 10 mph from Northeast

Location: Caen Airport


UV Index: 3 (Moderate)

Visibility: 2 mi


Pressure: 29.77 "Hg

Humidity: 94%

Dew point: 46 °F

Location of CaenLocation

Historic Weather in Caen

°F

Caen temperature yesterday

Maximum temperature yesterday: 54 °F (at 4:30 PM)
Minimum temperature yesterday: 41 °F (at 4:30 AM)
Average temperature yesterday: 48 °F

Past Weeks' High & Low Weather Summary

 TemperatureHumidityPressure
High68 °F (Apr 17, 4:00 PM)100% (Apr 9, 7:00 AM)30.36 "Hg (Apr 9, 7:00 AM)
Low34 °F (Apr 17, 6:00 AM)37% (Apr 17, 1:00 PM)29.77 "Hg (Apr 7, 6:00 PM)
Average51 °F77%30.14 "Hg
* Reported Apr 5 2:00 AM — Apr 20 2:30 AM, Caen, Weather by CustomWeather, © 2014

Note: Actual official high and low records may vary slightly from our data, if they occured in-between our weather recording intervals... More about our weather records

Advertising

Historic Weather Conditions — Data for Previous 24 hours

 ConditionsComfort  
Time TempWeatherWind HumidityBarometerVisibility
2:30 AM
Apr 20
48 °FRain. Fog.9 mph94%29.77 "Hg2 mi
2:00 AM48 °FLight rain. Fog.8 mph94%29.80 "Hg3 mi
1:30 AM48 °FLight rain. Fog.6 mph94%29.83 "Hg3 mi
1:00 AM48 °FLight rain. Fog.9 mph94%29.83 "Hg3 mi
12:30 AM48 °FLight rain. Fog.9 mph94%29.86 "Hg3 mi
12:00 AM50 °FLight rain. Fog.10 mph82%29.86 "Hg3 mi
11:30 PM
Apr 19
50 °FClear.9 mph82%29.86 "HgN/A
11:00 PM50 °FClear.9 mph76%29.89 "HgN/A
10:30 PM50 °FClear.10 mph76%29.89 "HgN/A
10:00 PM50 °FClear.12 mph71%29.89 "HgN/A
9:30 PM50 °FClear.12 mph71%29.89 "HgN/A
9:00 PM50 °FClear.12 mph76%29.89 "HgN/A
8:30 PM50 °FClear.12 mph76%29.89 "HgN/A
8:00 PM50 °FClear.14 mph76%29.89 "HgN/A
7:30 PM52 °FClear.12 mph72%29.89 "HgN/A
7:00 PM52 °FClear.13 mph67%29.89 "HgN/A
6:30 PM52 °FClear.13 mph62%29.89 "HgN/A
6:00 PM54 °FClear.8 mph51%29.92 "HgN/A
5:30 PM54 °FScattered clouds.9 mph47%29.92 "HgN/A
5:00 PM54 °FPartly sunny.8 mph51%29.92 "HgN/A
4:30 PM54 °FScattered clouds.9 mph54%29.92 "HgN/A
4:00 PM52 °FBroken clouds.7 mph54%29.95 "HgN/A
3:30 PM50 °FOvercast.12 mph58%29.95 "HgN/A
3:00 PM52 °FOvercast.9 mph54%29.98 "HgN/A
2:30 PM50 °FMore clouds than sun.9 mph58%29.98 "HgN/A
2:00 PM50 °FMostly cloudy.10 mph54%29.98 "HgN/A
1:30 PM50 °FMore clouds than sun.12 mph54%29.98 "HgN/A
1:00 PM50 °FClear.12 mph54%29.98 "HgN/A
12:30 PM48 °FCloudy.10 mph62%29.98 "HgN/A
12:00 PM50 °FMostly cloudy.9 mph58%29.98 "HgN/A
11:30 AM48 °FMostly cloudy.9 mph62%30.01 "HgN/A
11:00 AM48 °FCloudy.10 mph62%30.01 "HgN/A
10:30 AM48 °FPartly sunny.8 mph62%30.01 "HgN/A
10:00 AM46 °FMore clouds than sun.13 mph66%30.01 "HgN/A
9:30 AM48 °FClear.10 mph62%30.01 "HgN/A
9:00 AM46 °FMostly cloudy.8 mph71%30.01 "HgN/A
8:30 AM45 °FBroken clouds.7 mph76%30.01 "HgN/A
8:00 AM45 °FLight rain. Mostly cloudy.6 mph76%30.01 "HgN/A
7:30 AM45 °FOvercast.6 mph76%30.01 "HgN/A
7:00 AM45 °FMostly cloudy.8 mph76%30.01 "HgN/A
6:30 AM45 °FLight rain. Overcast.8 mph76%30.01 "HgN/A
6:00 AM45 °FMostly cloudy.8 mph76%30.01 "HgN/A
5:30 AM45 °FOvercast.8 mph76%30.04 "HgN/A
5:00 AM43 °FPassing clouds.6 mph81%30.04 "HgN/A
4:30 AM41 °FClear.3 mph87%30.04 "HgN/A
4:00 AM43 °FClear.5 mph81%30.04 "HgN/A
3:30 AM43 °FClear.2 mph81%30.04 "HgN/A
3:00 AM45 °FClear.7 mph81%30.04 "HgN/A
Weather by CustomWeather, © 2014

See weather overview